Location: �perlecques
(50.8057°N, 2.1521°E)
Time: 16:04:10
(UTC+00:00)

STARLINK-1214 - Pass Details

Date: 09 April 2020
Orbit: 376 x 383 km, 53.0° (Epoch: 29 May)

Event Time Altitude Azimuth Distance (km) Brightness Sun altitude
Rises 19:57:39 0° 288° (WNW) 2,205 8.5 -12.5°
Reaches altitude 10° 19:59:47 10° 279° (W) 1,353 6.8 -12.8°
Maximum altitude 20:02:34 34° 212° (SSW) 623 3.9 -13.2°
Enters shadow 20:03:59 21° 161° (SSE) 876 4.2 -13.4°
